Currently 60°F in Simi Valley, California, USA
60°F
61°F / 60°F
calm
0.00"
Monday, September 27, 2021 8:52 AM PDT

Simi Valley, California Climate Summary
Typical April Day

Normal High:    74.9°F (23.9°C)
Normal Low:    51.0°F (10.6°C)
Average:    62.0°F (16.7°C)

Hour    Temperature    Wind Speed    Humidity
12:00 AM    56°F (13°C)    2 mph    67%
1:00 AM    55°F (13°C)    3 mph    68%
2:00 AM    55°F (13°C)    2 mph    68%
3:00 AM    54°F (12°C)    2 mph    69%
4:00 AM    54°F (12°C)    2 mph    70%
5:00 AM    53°F (12°C)    2 mph    70%
6:00 AM    53°F (12°C)    3 mph    71%
7:00 AM    53°F (12°C)    3 mph    71%
8:00 AM    56°F (13°C)    3 mph    69%
9:00 AM    60°F (16°C)    3 mph    63%
10:00 AM    65°F (18°C)    4 mph    55%
11:00 AM    68°F (20°C)    5 mph    48%
12:00 PM    71°F (22°C)    6 mph    44%
1:00 PM    73°F (23°C)    6 mph    42%
2:00 PM    73°F (23°C)    7 mph    42%
3:00 PM    73°F (23°C)    7 mph    43%
4:00 PM    72°F (22°C)    8 mph    44%
5:00 PM    70°F (21°C)    7 mph    46%
6:00 PM    69°F (20°C)    6 mph    49%
7:00 PM    66°F (19°C)    5 mph    53%
8:00 PM    63°F (17°C)    3 mph    59%
9:00 PM    60°F (16°C)    2 mph    63%
10:00 PM    58°F (15°C)    2 mph    64%
11:00 PM    57°F (14°C)    2 mph    65%
 

The Simi Valley, California weather pages are a service of WeatherCurrents.
Copyright ©2021  WeatherCurrents. All rights reserved. - Submit questions and comments - Privacy Policy